DELTA 1 DEB, 2223

Orbit data source: Space-Track

DELTA 1 DEB, 2223 is space debris in SSO originally from a launch on Mon, 28 Feb 1966 UTC launched from the Air Force Eastern Test Range (AFETR). Debris objects in space refer to the collection of defunct objects orbiting the Earth. Examples of debris include non-operational satellites, rocket bodies, and fragments generated from explosions, collisions, or faulty payload assembly.

Loading next visibility...
Identifier
2223, 1966-016C
Orbit
SSO
Last TLE update
2 days ago
Origin
Manufacturer
Unknown
Mission
Spacecraft
Bus & Motor
Unknown
Mass
1 kg wet, 1 kg dry
Launch date (UTC)
1966-02-28 (59 years ago)
Launch vehicle
Unknown
Launch site
Air Force Eastern Test Range (AFETR)
Object type
Payload
Rocket body
Debris
Shape & HBR
Cyl + 1 Cable, 3.5 m
Radar Cross Section
3.500 m², Small (<0.1 m²)

Expand to show TLE details & history

TLE from 2 days ago
0 DELTA 1 DEB
1 02223U 66016C   25181.05796039 -.00000047  00000-0 -12652-4 0  9997
2 02223 100.7761 216.6369 0093126 246.2700 171.7641 12.87754447781639
Epoch: 2025-06-30T01:23Z
TLE epoch observation values (Epoch: 2025-06-30T01:23:27.777Z)
Latitude
56.68575°
Longitude
-99.34979°
Altitude
1,390.668 km
Speed
7.136 km/s
True Right ascension
13h 19m 33s
True Declination
56° 32' 26"
Sunlit
Object was in daylight at epoch
Visualization orbit readout
Latitude
-78.17172°
Longitude
34.29889°
Altitude
1,271.802 km
Speed
7.251 km/s
Apparent Right ascension
18h 20m 09s
Apparent Declination
-64° 22' 35"
Sunlit
Object is in daylight
Visualization observer readout
Local Sidereal Time
05:16:37
Azimuth
195.573° SSW
Elevation
-63.843°
Doppler factor
1
Orbital elements
Apogee altitude
1,379.467 km
Perigee altitude
1,236.313 km
Semi-major axis
7,686.027 km
Eccentricity
0.00931
Inclination
100.7761°
RAAN
216.6369°
Arg. of periapsis
246.27°
True anomaly
Unknown
Mean anomaly
171.7641°
Eccentric anomaly
Unknown
Mean motion
3.221 °/min
Orbital period
111.77 mins
BSTAR
-0.000012652
Loading maneuver chart data...
Loading SW <> Apogee altitude chart data...
Loading historical data...
Loading historical data...
Loading historical data...
Loading historical data...
Loading historical data...
Loading historical data...
Loading historical data...
Other satellites on launch #16 in the year 1966 (1966-02-28 UTC)

DELTA 1 DEB Visibility forecast

Observer location: undefined°, undefined°

Span
Click to sort rows by Start time (UTC) header in descending order
Start Az.
Max El. time (UTC)
Max El. Az.
Max El.
End time (UTC)
End Az.
6 mins2025-07-01 23:55:59.644Z70.769° E2025-07-01 23:58:59.644Z47.841° ENE12.932°2025-07-02 00:01:59.644Z25.001° NE
14 mins2025-07-02 01:40:59.644Z142.69° SSE2025-07-02 01:46:59.644Z78.582° E41.143°2025-07-02 01:54:59.644Z350.905° N
11 mins2025-07-02 03:32:59.644Z219.608° SW2025-07-02 03:37:59.644Z269.572° W25.202°2025-07-02 03:43:59.644Z320.417° NNW
5 mins2025-07-02 13:27:59.644Z72.138° E2025-07-02 13:29:59.644Z88.541° E13.11°2025-07-02 13:32:59.644Z112.609° SE
13 mins2025-07-02 15:14:59.644Z19.578° NNE2025-07-02 15:20:59.644Z103.309° ESE44.596°2025-07-02 15:27:59.644Z192.954° SSW
9 mins2025-07-02 17:05:59.644Z342.202° N2025-07-02 17:09:59.644Z305.825° NW20.9°2025-07-02 17:14:59.644Z261.749° W
|